Wind_Speed
20 20 20 20 19 19 18 17 17 16 16 15 14 13 13 12 11 11 10 10 9 8 8 8 8 8 8 8 8 8 8 8 8 8 8 8 8 8 8 9 10 10 11
23 22 22 22 21 21 20 20 19 18 18 17 16 16 15 14 13 13 13 12 11 11 11 10 10 10 9 9 9 9 9 9 8 8 8 8 8 9 9 10 10 11 11
25 25 24 24 23 23 22 22 22 21 20 20 19 18 17 17 16 15 15 14 14 13 13 12 12 12 11 10 10 10 10 10 9 9 9 9 9 10 10 11 11 12 12
27 27 26 27 26 26 25 24 24 24 23 22 21 20 19 19 18 18 17 17 16 15 15 14 14 14 13 12 11 11 11 11 11 10 10 10 10 11 11 11 12 12 12
29 29 29 29 29 28 28 27 26 26 25 25 24 23 22 21 20 20 19 19 18 18 17 16 15 15 15 14 13 13 12 12 12 11 11 11 11 12 12 12 13 13 13
32 32 32 31 31 31 31 30 29 29 28 27 27 26 25 24 23 22 21 21 21 20 19 18 17 17 17 16 15 14 14 14 13 13 12 12 12 13 13 13 13 13 14
35 34 34 34 34 33 33 33 32 32 31 30 29 28 28 27 26 25 24 23 23 22 21 20 20 19 18 17 17 16 15 15 15 14 13 13 13 13 14 14 15 15 15
37 37 37 36 36 36 35 34 34 34 33 33 32 31 30 29 28 27 26 26 25 24 23 23 22 21 20 19 19 18 17 17 16 16 15 14 15 15 15 15 16 16 16
40 40 39 38 38 38 37 36 36 35 35 35 34 34 33 32 30 29 29 29 28 27 26 25 24 23 22 21 21 20 19 19 18 17 16 16 16 16 16 17 17 17 18
42 42 41 40 40 40 39 38 38 38 37 36 36 35 35 34 33 33 32 31 30 29 28 27 26 26 25 24 23 22 21 20 20 19 18 18 17 17 18 18 18 19 19
43 44 43 43 42 42 42 41 40 40 39 39 38 37 37 36 36 35 34 34 33 32 30 30 29 28 27 26 25 24 23 22 22 21 20 20 19 19 19 19 20 20 21
45 45 45 45 44 44 44 43 43 42 41 41 40 39 39 38 38 37 37 36 35 34 33 32 31 30 29 28 27 26 25 24 23 23 22 21 21 21 21 21 21 21 22
46 46 46 46 46 46 46 46 45 44 43 42 42 41 41 40 39 39 38 38 37 36 35 34 33 32 31 30 29 28 27 26 25 24 24 23 23 22 22 22 22 23 23
48 47 48 48 48 48 48 48 48 46 46 45 44 44 43 42 41 40 39 39 38 38 37 36 35 34 33 32 31 30 29 28 27 26 25 25 24 24 24 24 24 24 25
49 49 49 49 50 50 50 49 49 48 48 47 47 46 45 44 44 43 41 40 40 40 39 38 37 35 35 33 32 31 31 30 29 28 27 27 26 26 25 25 26 26 26
49 50 50 51 51 51 51 51 50 50 50 49 49 48 47 46 45 44 44 43 42 42 41 40 39 37 36 35 34 33 32 32 31 30 29 29 28 27 27 27 27 27 28
50 51 51 51 52 52 52 52 52 50 51 51 51 50 48 47 47 46 45 45 44 43 43 42 41 40 38 37 36 35 34 34 33 31 31 30 30 29 29 28 29 29 29
51 51 51 51 52 53 52 53 53 51 51 52 51 51 50 49 49 48 47 47 46 45 45 44 43 42 41 40 38 37 36 35 34 33 32 32 31 31 30 30 30 31 31
51 50 50 51 52 53 53 53 53 53 53 53 52 52 52 51 50 50 49 49 49 47 46 46 44 44 43 41 40 39 37 36 36 35 34 33 32 32 32 32 32 32 33
50 50 50 51 51 52 53 53 53 53 52 53 53 52 52 51 51 50 50 49 50 50 48 47 46 46 45 43 42 40 39 38 37 36 35 34 33 33 33 33 33 33 34
47 47 49 48 49 52 53 53 52 52 53 52 53 53 52 51 51 50 50 50 50 51 50 48 47 47 46 45 43 41 40 38 38 37 37 36 35 35 35 35 34 34 35
46 46 47 47 49 50 51 51 52 52 52 52 53 53 52 52 52 50 50 51 51 51 51 50 49 48 48 46 45 44 42 41 40 39 38 37 36 36 36 36 36 36 36
45 45 46 47 48 49 49 51 52 52 52 52 53 52 52 52 51 51 51 51 51 51 50 51 50 48 49 47 46 46 44 43 41 40 39 38 38 37 37 37 37 36 37
42 43 45 44 45 46 47 49 50 51 51 52 52 51 52 52 51 52 52 51 51 51 51 51 50 49 49 48 46 46 45 43 42 41 41 40 40 39 38 38 38 37 37
40 41 42 42 44 45 46 47 47 49 50 51 51 51 51 52 51 51 51 50 50 51 50 51 50 50 49 48 47 47 46 44 43 42 41 41 40 40 39 39 38 38 38
38 38 40 42 43 44 45 45 45 45 47 48 48 50 49 50 50 49 49 50 50 50 50 51 50 49 49 49 48 47 46 44 42 41 41 40 40 40 40 39 38 39 39
Wind_Direction
253 254 254 253 251 250 249 247 244 242 243 243 243 243 242 244 249 252 252 256 262 265 271 277 282 289 294 298 299 300 302 305 308 309 313 317 319 320 321 324 327 329 331
252 252 253 253 253 252 250 249 247 246 245 245 245 245 243 244 247 251 252 254 258 263 269 273 277 283 287 292 292 292 295 298 302 305 307 309 313 315 316 318 321 324 327
251 250 251 251 252 252 252 251 248 247 246 247 247 246 245 245 248 251 252 254 257 261 267 271 274 278 281 286 287 286 289 293 297 301 302 301 304 308 311 313 316 319 321
252 251 250 250 250 250 251 251 250 248 248 248 248 247 248 248 249 252 253 254 257 260 265 269 272 274 276 279 283 282 284 288 293 296 296 295 298 302 306 309 313 316 317
252 251 250 250 249 249 250 250 249 248 248 248 249 248 249 250 251 252 253 254 256 259 263 267 270 271 272 274 278 280 281 284 288 292 292 290 294 298 302 305 309 311 313
252 251 251 250 250 250 249 249 249 248 248 248 249 250 249 250 251 252 253 254 256 257 261 264 267 269 270 271 274 277 278 281 284 288 289 287 291 295 298 301 304 307 310
253 251 251 251 250 250 250 250 250 249 248 248 249 250 250 250 251 251 252 254 256 257 259 262 264 266 267 268 270 273 276 278 281 283 285 285 287 292 295 298 300 303 306
253 252 251 251 251 250 250 250 250 249 249 249 249 250 251 251 251 252 252 253 255 257 258 260 262 264 265 267 268 270 273 275 277 279 281 284 286 289 293 296 298 300 303
253 253 252 251 251 250 249 249 250 249 249 249 249 250 250 251 251 252 252 252 253 255 257 259 260 261 263 265 266 267 270 273 275 276 278 280 285 288 290 293 296 298 301
253 252 252 251 250 250 249 248 248 248 248 249 249 249 249 250 251 252 252 252 253 254 256 257 259 260 261 262 264 265 267 270 272 274 276 278 281 285 288 291 293 296 299
254 253 251 250 249 249 248 247 247 247 248 248 249 250 250 251 251 252 252 253 253 254 255 256 257 258 259 260 261 262 264 267 269 272 274 277 279 282 285 288 292 294 297
254 253 252 250 249 248 248 247 248 247 248 249 249 249 250 251 252 252 252 252 253 254 253 253 255 257 257 258 258 259 261 264 267 269 273 275 277 280 282 285 289 292 296
253 253 252 251 250 249 248 248 248 248 248 248 249 248 249 250 251 252 252 252 252 253 253 252 252 254 255 255 256 257 259 261 264 267 271 273 277 279 281 283 286 290 294
252 251 251 251 250 249 248 248 248 248 248 248 249 249 249 249 250 250 251 252 251 251 252 252 252 254 255 254 254 255 257 260 262 265 268 271 275 278 280 282 285 288 292
251 251 251 250 249 249 248 248 247 247 248 248 249 249 249 249 249 250 250 250 250 250 250 252 252 254 254 254 253 254 255 258 260 263 266 269 273 276 279 282 285 287 290
251 251 251 250 248 248 248 248 247 247 247 248 249 249 249 249 249 249 249 249 249 249 249 250 251 252 254 254 254 254 255 256 258 261 264 267 271 274 278 281 284 287 289
251 251 251 250 249 248 247 247 247 247 247 247 248 249 249 248 248 248 248 248 247 247 247 248 249 250 253 255 254 254 255 256 257 259 263 265 269 273 277 280 284 287 289
251 251 251 250 248 248 247 247 247 246 246 246 247 248 248 247 247 247 247 247 247 246 246 247 248 250 252 254 254 254 255 256 256 258 261 265 268 271 275 279 283 286 289
252 252 251 250 249 248 247 247 247 246 245 246 246 247 247 246 246 246 246 247 246 245 246 246 246 249 250 252 254 255 254 255 256 257 260 264 267 270 274 278 282 285 289
252 252 251 250 249 249 248 247 247 246 246 245 245 246 246 246 245 245 245 246 246 245 245 244 245 246 248 250 252 253 253 253 254 256 259 262 266 270 274 278 281 285 288
252 251 250 250 249 249 249 248 248 247 246 245 245 245 245 244 244 244 244 244 244 244 243 243 243 245 247 249 250 251 251 253 254 256 259 262 265 269 272 276 280 284 288
253 252 251 250 249 250 250 250 249 247 246 245 245 245 244 244 244 244 243 243 243 243 243 242 242 244 246 248 249 250 250 252 254 256 259 262 265 268 272 275 279 283 287
253 252 250 249 250 250 250 250 247 246 246 245 245 244 244 244 244 243 243 242 242 240 241 242 242 243 245 247 248 250 251 252 254 255 258 261 264 267 271 275 278 282 286
253 252 250 249 251 251 251 248 246 247 247 245 244 244 244 243 243 242 242 241 241 240 240 240 241 243 244 245 247 249 250 252 254 255 258 260 263 267 271 274 277 281 284
252 252 251 251 252 252 252 248 248 248 247 244 243 244 244 242 241 241 242 241 240 239 239 239 241 242 244 244 246 249 250 251 253 255 257 260 263 266 269 273 276 279 283
253 253 253 251 251 251 250 248 248 248 246 244 244 242 241 240 239 240 241 240 240 239 238 238 239 241 242 244 245 248 249 250 252 254 257 259 262 265 268 272 275 279 282
Height
5837 5838 5839 5840 5842 5843 5844 5846 5847 5848 5850 5851 5852 5852 5853 5854 5855 5856 5857 5858 5858 5859 5860 5860 5860 5860 5860 5860 5860 5860 5860 5860 5859 5859 5859 5858 5858 5857 5857 5856 5855 5854 5853
5833 5834 5835 5837 5838 5840 5841 5842 5844 5845 5846 5848 5849 5850 5851 5852 5853 5854 5855 5856 5856 5857 5858 5859 5859 5859 5859 5859 5859 5859 5859 5858 5858 5858 5857 5857 5856 5856 5855 5855 5854 5853 5852
5828 5830 5831 5832 5834 5835 5837 5838 5840 5841 5843 5844 5845 5847 5848 5849 5850 5851 5852 5853 5854 5855 5856 5856 5857 5857 5857 5857 5857 5857 5857 5857 5856 5856 5856 5855 5855 5854 5854 5853 5852 5851 5850
5823 5825 5826 5827 5829 5830 5832 5834 5835 5837 5839 5840 5842 5843 5844 5846 5847 5848 5849 5850 5851 5852 5853 5854 5855 5855 5855 5855 5855 5855 5855 5855 5855 5854 5854 5853 5853 5852 5852 5851 5850 5849 5848
5818 5819 5821 5822 5824 5825 5827 5829 5831 5832 5834 5836 5837 5839 5840 5842 5843 5844 5846 5847 5848 5849 5850 5851 5852 5852 5853 5853 5853 5853 5853 5853 5852 5852 5852 5851 5851 5850 5850 5849 5848 5847 5846
5811 5813 5815 5816 5818 5820 5821 5823 5825 5827 5829 5831 5832 5834 5836 5837 5839 5840 5842 5843 5844 5845 5846 5848 5848 5849 5850 5850 5850 5850 5850 5850 5850 5850 5849 5849 5849 5848 5847 5847 5846 5845 5844
5804 5806 5808 5810 5812 5814 5816 5817 5819 5821 5823 5825 5827 5829 5830 5832 5834 5836 5837 5839 5840 5841 5842 5844 5845 5845 5846 5847 5847 5847 5847 5847 5847 5847 5847 5847 5846 5845 5845 5844 5843 5842 5841
5797 5798 5800 5803 5805 5807 5809 5811 5813 5815 5817 5819 5821 5823 5825 5827 5829 5831 5833 5834 5835 5837 5838 5839 5840 5842 5842 5843 5844 5844 5844 5844 5844 5844 5844 5844 5843 5843 5842 5841 5840 5839 5838
5788 5790 5792 5794 5797 5799 5801 5804 5806 5808 5810 5812 5814 5817 5819 5821 5823 5825 5827 5829 5830 5832 5833 5835 5836 5837 5838 5839 5840 5840 5840 5841 5841 5841 5841 5840 5840 5839 5839 5838 5837 5836 5834
5779 5781 5784 5786 5788 5791 5793 5796 5798 5801 5803 5805 5808 5810 5812 5815 5817 5819 5821 5823 5824 5826 5828 5829 5831 5832 5833 5834 5835 5836 5836 5837 5837 5837 5837 5837 5836 5836 5835 5834 5834 5832 5831
5768 5771 5774 5777 5779 5782 5785 5787 5790 5793 5795 5797 5800 5803 5805 5808 5810 5812 5814 5816 5818 5820 5822 5824 5825 5827 5828 5829 5830 5831 5832 5832 5833 5833 5833 5833 5832 5832 5831 5831 5830 5828 5827
5758 5760 5763 5767 5770 5772 5775 5778 5781 5784 5787 5789 5792 5795 5797 5800 5802 5805 5807 5809 5811 5813 5815 5817 5819 5820 5822 5824 5825 5826 5827 5828 5828 5828 5829 5829 5828 5828 5827 5827 5826 5824 5823
5747 5749 5752 5755 5759 5762 5765 5768 5772 5775 5778 5781 5784 5786 5789 5792 5794 5797 5799 5802 5804 5806 5808 5810 5812 5813 5815 5817 5819 5820 5821 5822 5823 5824 5824 5824 5824 5823 5823 5822 5821 5820 5819
5734 5737 5740 5743 5747 5751 5754 5758 5761 5765 5768 5771 5774 5777 5780 5783 5786 5789 5791 5794 5796 5799 5801 5803 5805 5807 5808 5811 5813 5814 5816 5817 5818 5818 5819 5819 5819 5819 5818 5817 5816 5815 5814
5720 5724 5727 5730 5734 5738 5742 5746 5750 5754 5757 5761 5764 5767 5770 5773 5776 5779 5782 5785 5788 5790 5793 5796 5798 5800 5802 5804 5806 5808 5809 5811 5812 5812 5813 5813 5814 5813 5813 5812 5811 5810 5809
5707 5710 5713 5716 5720 5725 5729 5734 5738 5742 5746 5749 5753 5756 5759 5763 5766 5769 5773 5776 5779 5782 5785 5788 5791 5793 5795 5797 5799 5801 5803 5804 5805 5806 5807 5808 5808 5808 5807 5807 5806 5804 5803
5694 5697 5699 5702 5706 5711 5716 5720 5725 5729 5733 5737 5741 5744 5748 5751 5755 5759 5762 5765 5769 5772 5775 5779 5782 5785 5787 5789 5792 5794 5796 5797 5799 5800 5801 5801 5802 5802 5801 5801 5800 5799 5797
5679 5683 5686 5689 5693 5697 5702 5707 5711 5715 5720 5723 5728 5732 5736 5740 5744 5748 5751 5755 5759 5762 5766 5770 5773 5776 5779 5781 5784 5786 5788 5790 5792 5793 5794 5795 5795 5795 5795 5795 5794 5793 5791
5665 5669 5672 5676 5679 5684 5688 5693 5697 5702 5706 5710 5715 5719 5723 5727 5731 5735 5740 5744 5748 5751 5755 5760 5764 5767 5770 5773 5775 5778 5780 5782 5784 5786 5787 5788 5788 5789 5789 5788 5787 5786 5784
5651 5655 5659 5662 5666 5670 5674 5679 5683 5687 5692 5696 5701 5706 5710 5714 5719 5723 5727 5732 5735 5740 5745 5749 5754 5758 5761 5764 5767 5769 5771 5774 5776 5778 5779 5780 5781 5782 5782 5781 5781 5779 5778
5638 5641 5645 5649 5653 5657 5661 5666 5670 5674 5678 5683 5687 5692 5696 5701 5705 5710 5715 5719 5724 5728 5733 5738 5743 5747 5751 5754 5757 5760 5762 5765 5768 5770 5772 5773 5774 5774 5774 5774 5773 5772 5770
5626 5629 5633 5637 5641 5644 5648 5653 5656 5661 5665 5669 5673 5678 5683 5687 5692 5697 5702 5707 5711 5716 5721 5727 5732 5736 5740 5744 5748 5751 5754 5757 5760 5762 5764 5765 5766 5767 5767 5766 5766 5765 5763
5615 5618 5622 5625 5628 5631 5635 5639 5642 5646 5651 5656 5660 5665 5669 5674 5679 5684 5689 5694 5699 5704 5710 5715 5721 5725 5730 5734 5738 5742 5745 5749 5752 5754 5755 5757 5758 5758 5759 5758 5758 5757 5755
5604 5607 5610 5613 5616 5619 5622 5626 5630 5634 5638 5643 5647 5652 5656 5661 5666 5671 5676 5681 5687 5692 5698 5704 5709 5714 5719 5723 5728 5732 5737 5740 5743 5746 5747 5748 5749 5750 5750 5750 5750 5748 5747
5593 5596 5599 5602 5605 5607 5610 5614 5617 5621 5625 5630 5634 5638 5643 5648 5653 5658 5663 5669 5674 5680 5686 5692 5698 5703 5708 5714 5718 5723 5726 5730 5733 5736 5738 5740 5741 5742 5742 5742 5741 5740 5739
5583 5585 5587 5590 5594 5596 5599 5602 5606 5609 5613 5617 5621 5626 5630 5635 5640 5646 5651 5657 5663 5669 5675 5681 5686 5692 5698 5703 5708 5712 5717 5720 5724 5726 5729 5731 5732 5733 5733 5733 5732 5731 5730